When you browse on this site, cookies collect data to enhance your experience and personalize the content and advertising you see.
Visit our Privacy Policy to learn more. By continuing to use the site, you agree to this use of cookies and data.
  • en France
  • Liste des pays
  • À 7 jours
  • Température de l'eau
  • Carte satellitaire
  • Carte météo
  • Widgets météo
  • user-avatar
    Se connecter

    Météo par heure à Wien

    Ce jour, 21 Avril, Dimanche

    Heure Température Précipitation Vent Pression Humidité
    00:00 +12°C° 0 mm 1 m/s 750 mmHg 46%
    01:00 +12°C° 0 mm 1 m/s 749 mmHg 49%
    02:00 +11°C° 0 mm 1 m/s 749 mmHg 52%
    03:00 +11°C° 0 mm 1 m/s 749 mmHg 55%
    04:00 +10°C° 0 mm 1 m/s 749 mmHg 58%
    05:00 +11°C° 0 mm 1 m/s 748 mmHg 58%
    06:00 +12°C° 0 mm 1 m/s 748 mmHg 58%
    07:00 +13°C° 0 mm 1 m/s 748 mmHg 58%
    08:00 +14°C° 0 mm 1 m/s 748 mmHg 52%
    09:00 +16°C° 0 mm 1 m/s 748 mmHg 47%
    10:00 +18°C° 0 mm 2 m/s 748 mmHg 41%
    11:00 +19°C° 0 mm 2 m/s 747 mmHg 39%
    12:00 +20°C° 0 mm 2 m/s 747 mmHg 36%
    13:00 +21°C° 0 mm 2 m/s 746 mmHg 34%
    14:00 +21°C° 0 mm 2 m/s 746 mmHg 34%
    15:00 +21°C° 0 mm 2 m/s 745 mmHg 34%
    16:00 +21°C° 0 mm 2 m/s 745 mmHg 35%
    17:00 +19°C° 0 mm 2 m/s 745 mmHg 39%
    18:00 +17°C° 0 mm 2 m/s 745 mmHg 44%
    19:00 +16°C° 0 mm 2 m/s 744 mmHg 49%
    20:00 +15°C° 0 mm 2 m/s 744 mmHg 52%
    21:00 +14°C° 0 mm 1 m/s 744 mmHg 55%
    22:00 +13°C° 0 mm 1 m/s 745 mmHg 58%
    23:00 +12°C° 0 mm 1 m/s 744 mmHg 60%

    Demain, 22 Avril, Lundi

    Heure Température Précipitation Vent Pression Humidité
    00:00 +12°C° 0 mm 1 m/s 744 mmHg 62%
    01:00 +11°C° 0 mm 1 m/s 744 mmHg 64%
    02:00 +11°C° 0 mm 1 m/s 743 mmHg 65%
    03:00 +10°C° 0 mm 1 m/s 743 mmHg 66%
    04:00 +10°C° 0 mm 1 m/s 742 mmHg 67%
    05:00 +10°C° 0 mm 1 m/s 742 mmHg 65%
    06:00 +11°C° 0 mm 1 m/s 742 mmHg 63%
    07:00 +12°C° 0 mm 1 m/s 742 mmHg 60%
    08:00 +14°C° 0 mm 1 m/s 741 mmHg 55%
    09:00 +16°C° 0 mm 2 m/s 741 mmHg 50%
    10:00 +17°C° 0 mm 2 m/s 741 mmHg 45%
    11:00 +18°C° 0 mm 2 m/s 740 mmHg 43%
    12:00 +19°C° 0 mm 3 m/s 740 mmHg 41%
    13:00 +20°C° 0 mm 3 m/s 740 mmHg 40%
    14:00 +20°C° 0 mm 3 m/s 739 mmHg 42%
    15:00 +19°C° 0 mm 3 m/s 739 mmHg 45%
    16:00 +19°C° 0 mm 4 m/s 738 mmHg 48%
    17:00 +18°C° 0 mm 4 m/s 738 mmHg 54%
    18:00 +15°C° 0 mm 5 m/s 738 mmHg 60%
    19:00 +14°C° 0 mm 5 m/s 738 mmHg 67%
    20:00 +13°C° 0 mm 5 m/s 738 mmHg 70%
    21:00 +11°C° 0 mm 6 m/s 739 mmHg 74%
    22:00 +11°C° 0 mm 6 m/s 739 mmHg 77%
    23:00 +10°C° 0 mm 6 m/s 738 mmHg 79%

    Après-demain, 23 Avril, Mardi

    Heure Température Précipitation Vent Pression Humidité
    00:00 +10°C° 0 mm 6 m/s 738 mmHg 80%
    01:00 +10°C° 0 mm 6 m/s 738 mmHg 81%
    02:00 +10°C° 0.1 mm 6 m/s 738 mmHg 83%
    03:00 +9°C° 0.1 mm 5 m/s 737 mmHg 85%
    04:00 +9°C° 0.1 mm 5 m/s 737 mmHg 87%
    05:00 +10°C° 0 mm 6 m/s 737 mmHg 84%
    06:00 +10°C° 0 mm 7 m/s 736 mmHg 82%
    07:00 +10°C° 0 mm 7 m/s 736 mmHg 80%
    08:00 +10°C° 0.3 mm 7 m/s 736 mmHg 82%
    09:00 +11°C° 0.3 mm 7 m/s 737 mmHg 84%
    10:00 +11°C° 0.3 mm 7 m/s 737 mmHg 85%
    11:00 +11°C° 0.7 mm 8 m/s 737 mmHg 86%
    12:00 +10°C° 0.7 mm 8 m/s 737 mmHg 86%
    13:00 +10°C° 0.7 mm 9 m/s 737 mmHg 87%
    14:00 +10°C° 0.2 mm 8 m/s 736 mmHg 86%
    15:00 +10°C° 0.2 mm 8 m/s 736 mmHg 85%
    16:00 +11°C° 0.2 mm 8 m/s 736 mmHg 85%
    17:00 +11°C° 0.1 mm 8 m/s 736 mmHg 86%
    18:00 +11°C° 0.1 mm 8 m/s 735 mmHg 88%
    19:00 +11°C° 0.1 mm 8 m/s 735 mmHg 89%
    20:00 +11°C° 0.1 mm 8 m/s 736 mmHg 89%
    21:00 +12°C° 0.1 mm 8 m/s 736 mmHg 89%
    22:00 +12°C° 0.1 mm 8 m/s 736 mmHg 89%
    23:00 +12°C° 0 mm 7 m/s 736 mmHg 89%

    24 Avril, Mercredi

    Heure Température Précipitation Vent Pression Humidité
    00:00 +12°C° 0 mm 7 m/s 736 mmHg 89%
    01:00 +12°C° 0 mm 7 m/s 736 mmHg 90%
    02:00 +12°C° 0 mm 7 m/s 736 mmHg 89%
    03:00 +11°C° 0 mm 7 m/s 736 mmHg 89%
    04:00 +11°C° 0 mm 7 m/s 736 mmHg 88%
    05:00 +12°C° 0 mm 7 m/s 737 mmHg 85%
    06:00 +12°C° 0 mm 7 m/s 737 mmHg 83%
    07:00 +14°C° 0 mm 7 m/s 737 mmHg 80%
    08:00 +16°C° 0 mm 7 m/s 738 mmHg 73%
    09:00 +18°C° 0 mm 7 m/s 738 mmHg 66%
    10:00 +20°C° 0 mm 7 m/s 738 mmHg 60%
    11:00 +21°C° 0 mm 7 m/s 738 mmHg 56%
    12:00 +22°C° 0 mm 7 m/s 738 mmHg 52%
    13:00 +23°C° 0 mm 7 m/s 738 mmHg 49%
    14:00 +24°C° 0 mm 7 m/s 738 mmHg 47%
    15:00 +24°C° 0 mm 6 m/s 738 mmHg 45%
    16:00 +26°C° 0 mm 6 m/s 738 mmHg 43%
    17:00 +23°C° 0 mm 6 m/s 738 mmHg 46%
    18:00 +21°C° 0 mm 6 m/s 738 mmHg 48%
    19:00 +20°C° 0 mm 6 m/s 738 mmHg 51%
    20:00 +19°C° 0 mm 6 m/s 739 mmHg 53%
    21:00 +17°C° 0 mm 5 m/s 739 mmHg 55%
    22:00 +17°C° 0 mm 4 m/s 740 mmHg 56%
    23:00 +16°C° 0 mm 3 m/s 740 mmHg 60%

    25 Avril, Jeudi

    Heure Température Précipitation Vent Pression Humidité
    00:00 +16°C° 0 mm 2 m/s 741 mmHg 63%
    01:00 +15°C° 0 mm 2 m/s 741 mmHg 67%
    02:00 +14°C° 0 mm 1 m/s 742 mmHg 70%
    03:00 +14°C° 0 mm 1 m/s 742 mmHg 73%
    04:00 +13°C° 0 mm 1 m/s 742 mmHg 77%
    05:00 +14°C° 0 mm 1 m/s 742 mmHg 75%
    06:00 +15°C° 0 mm 1 m/s 742 mmHg 73%
    07:00 +16°C° 0 mm 1 m/s 742 mmHg 71%
    08:00 +18°C° 0 mm 3 m/s 742 mmHg 65%
    09:00 +20°C° 0 mm 4 m/s 742 mmHg 59%
    10:00 +21°C° 0 mm 5 m/s 741 mmHg 53%
    11:00 +23°C° 0 mm 5 m/s 741 mmHg 47%
    12:00 +25°C° 0 mm 5 m/s 741 mmHg 41%
    13:00 +27°C° 0 mm 5 m/s 740 mmHg 36%
    14:00 +27°C° 0 mm 5 m/s 740 mmHg 35%
    15:00 +27°C° 0 mm 5 m/s 739 mmHg 35%
    16:00 +27°C° 0 mm 5 m/s 739 mmHg 35%
    17:00 +25°C° 0 mm 5 m/s 739 mmHg 39%
    18:00 +23°C° 0 mm 4 m/s 739 mmHg 43%
    19:00 +21°C° 0 mm 4 m/s 739 mmHg 48%
    20:00 +20°C° 0 mm 4 m/s 739 mmHg 49%
    21:00 +19°C° 0 mm 3 m/s 739 mmHg 51%
    22:00 +18°C° 0 mm 3 m/s 739 mmHg 53%
    23:00 +17°C° 0 mm 2 m/s 739 mmHg 56%

    26 Avril, Vendredi

    Heure Température Précipitation Vent Pression Humidité
    00:00 +17°C° 0 mm 2 m/s 739 mmHg 58%
    01:00 +16°C° 0 mm 2 m/s 739 mmHg 61%
    02:00 +15°C° 0 mm 1 m/s 739 mmHg 63%
    03:00 +15°C° 0 mm 1 m/s 739 mmHg 66%
    04:00 +14°C° 0 mm 1 m/s 740 mmHg 68%
    05:00 +15°C° 0 mm 2 m/s 740 mmHg 67%
    06:00 +16°C° 0 mm 3 m/s 740 mmHg 66%
    07:00 +15°C° 0 mm 4 m/s 740 mmHg 65%
    08:00 +18°C° 0 mm 4 m/s 740 mmHg 62%
    09:00 +19°C° 0 mm 3 m/s 740 mmHg 58%
    10:00 +20°C° 0 mm 3 m/s 740 mmHg 55%
    11:00 +19°C° 0 mm 3 m/s 740 mmHg 57%
    12:00 +19°C° 0 mm 3 m/s 740 mmHg 59%
    13:00 +19°C° 0 mm 3 m/s 740 mmHg 62%
    14:00 +17°C° 0.1 mm 4 m/s 740 mmHg 65%
    15:00 +15°C° 0.1 mm 6 m/s 740 mmHg 69%
    16:00 +12°C° 0.1 mm 7 m/s 740 mmHg 72%
    17:00 +11°C° 1 mm 7 m/s 741 mmHg 75%
    18:00 +10°C° 1 mm 7 m/s 742 mmHg 78%
    19:00 +9°C° 1 mm 7 m/s 743 mmHg 81%
    20:00 +9°C° 0.7 mm 7 m/s 743 mmHg 81%
    21:00 +9°C° 0.7 mm 7 m/s 744 mmHg 80%
    22:00 +9°C° 0.7 mm 7 m/s 745 mmHg 80%
    23:00 +8°C° 0.2 mm 7 m/s 745 mmHg 79%
    Voir plus